Vorticity
4 4 6 7 9 10 11 11 11 10 10 10 10 9 9 9 8 7 6 6 5 5 5 6 8 10 13 16 18 19 19 19 20 19 17 15 13 12 11 10 11 12 13 13 12 11 9 8 9 13 16 20 20 19 19 20 21 21 21 20 18 18 17 17 17 17 17 17 17
4 4 5 7 9 10 11 11 11 10 10 10 10 9 9 10 8 7 6 6 5 5 5 6 8 11 13 16 18 19 19 19 19 18 17 15 13 11 11 10 11 12 13 13 12 11 9 8 10 13 17 20 19 19 19 21 21 21 20 19 18 17 17 17 17 17 17 17 16
4 4 5 6 8 10 11 11 10 10 9 9 9 9 9 9 9 8 7 6 5 5 6 7 9 11 13 15 18 20 20 19 18 18 17 14 12 11 11 10 11 12 13 14 12 11 9 8 10 14 18 19 19 18 19 21 22 22 20 18 17 16 16 17 17 17 17 17 16
5 5 5 7 8 10 11 11 10 10 9 8 8 9 9 9 9 8 7 5 5 6 6 7 9 11 14 16 17 19 20 19 19 18 16 14 12 11 11 10 11 12 13 14 12 11 9 9 11 15 19 20 18 18 18 20 22 22 20 18 16 16 16 17 17 17 17 17 17
5 5 6 7 8 10 11 11 10 10 9 8 8 8 9 9 9 8 7 6 6 6 6 7 9 11 14 16 18 18 19 19 19 18 16 14 13 11 10 10 11 12 13 14 13 11 9 8 12 16 20 21 18 17 18 20 22 22 20 17 16 16 16 16 17 17 17 16 16
5 5 5 6 8 10 11 12 11 10 8 7 8 8 9 9 9 8 8 7 6 5 6 7 9 11 13 16 18 19 19 19 19 18 16 14 12 11 10 11 11 12 13 14 13 11 9 8 12 16 20 21 18 17 18 21 22 21 19 17 16 16 16 17 17 17 17 16 16
5 5 5 6 8 9 11 12 11 10 8 7 8 8 8 9 9 9 8 6 5 5 6 7 9 11 13 16 18 19 20 19 19 18 17 14 12 11 11 10 11 12 13 13 13 11 10 9 12 16 20 22 18 17 18 22 22 21 18 17 16 16 16 17 17 18 18 17 17
5 5 5 6 8 9 11 12 11 10 8 8 8 8 8 8 9 8 7 6 6 6 6 7 9 11 13 15 18 19 19 19 18 18 17 14 12 11 11 10 11 12 13 13 13 11 10 9 12 16 20 21 18 17 18 21 22 20 18 16 15 15 16 16 18 18 19 19 18
4 4 5 6 7 9 11 12 12 10 9 8 8 8 8 9 9 8 8 8 6 5 5 7 9 11 13 15 17 19 20 19 18 18 17 15 12 11 10 10 11 12 13 14 13 11 10 9 12 17 20 20 18 16 17 20 21 20 18 15 14 13 14 15 16 18 19 19 19
4 4 4 5 7 9 11 12 12 11 9 8 7 7 8 9 9 9 8 7 5 5 6 8 8 10 13 15 18 19 20 20 19 18 16 15 13 11 10 10 11 12 13 14 13 11 10 9 12 17 20 21 17 16 17 20 21 20 18 15 14 13 13 13 15 16 17 18 18
4 4 4 5 7 8 10 12 13 12 10 8 7 7 8 8 9 9 8 6 6 6 6 7 8 10 13 15 18 19 20 20 19 18 16 15 13 11 10 10 11 12 13 14 13 12 10 9 12 17 20 22 18 16 16 20 21 20 18 16 14 13 13 13 14 15 16 16 16
3 4 4 5 6 8 11 13 13 12 10 8 7 7 8 8 8 8 8 8 7 6 5 6 8 10 12 15 17 19 20 20 19 18 16 14 13 12 11 10 11 13 13 14 13 12 10 9 12 16 20 22 18 16 16 19 20 20 18 16 14 13 13 14 14 15 16 16 16
3 3 4 4 6 8 10 13 13 12 10 8 8 7 7 8 8 8 8 8 7 6 5 6 8 10 12 14 17 20 21 20 19 18 16 15 13 12 11 10 11 13 14 14 13 12 10 9 12 16 20 22 18 16 16 18 20 20 18 16 15 14 14 15 15 16 16 16 16
2 3 3 4 5 7 10 12 13 13 11 9 8 7 7 7 8 9 9 9 7 6 5 5 7 10 12 14 17 20 21 20 19 17 16 15 13 12 11 10 11 13 14 14 13 12 10 9 11 16 21 22 19 16 16 17 20 20 18 16 15 14 14 15 16 16 16 16 16
2 2 2 3 5 7 10 12 13 13 12 9 8 7 7 7 8 8 9 9 7 6 5 5 7 9 12 14 17 19 20 20 18 17 16 15 14 13 11 10 11 13 14 15 14 12 10 9 11 15 20 23 20 17 16 18 20 20 18 16 15 14 15 16 17 17 17 16 16
2 2 2 3 4 6 9 12 13 13 12 10 8 7 7 7 8 8 9 9 7 6 5 6 6 8 11 15 17 19 20 20 18 17 16 15 14 13 12 11 11 12 14 15 14 13 11 9 10 15 20 24 21 18 16 18 20 19 17 14 13 13 14 15 17 17 17 16 16
2 1 2 2 4 6 8 11 13 13 13 10 8 7 7 7 7 8 9 9 7 6 6 6 6 8 10 13 17 19 20 19 19 17 16 15 14 13 12 11 11 12 13 15 14 13 11 9 11 15 20 25 22 19 18 18 18 17 14 11 11 11 12 14 16 17 17 17 17
2 1 1 2 3 5 8 10 13 13 13 11 9 7 7 7 8 8 9 9 8 7 6 4 6 8 11 12 15 18 20 20 19 18 16 15 14 13 12 11 11 12 13 14 14 13 11 9 10 15 20 26 24 21 18 18 16 13 10 8 8 8 9 11 13 16 17 18 18
2 1 1 1 3 5 7 10 12 13 13 11 9 7 7 7 8 8 8 9 9 8 6 4 5 8 11 13 14 17 19 20 19 18 17 16 14 12 11 10 10 11 13 14 14 13 11 9 10 14 20 27 26 23 19 16 12 9 8 7 7 7 7 8 10 13 15 18 19
2 1 1 1 2 4 7 10 12 13 13 12 9 8 7 7 8 8 9 9 8 8 6 5 6 7 10 13 14 17 19 20 19 18 18 16 14 12 11 10 10 11 12 14 14 13 11 9 10 14 20 27 27 23 17 12 10 9 9 9 9 7 6 5 6 9 12 15 18
2 1 1 1 2 4 6 9 12 13 13 12 10 8 7 7 8 9 9 8 8 7 7 6 6 7 9 11 14 17 19 20 20 19 17 16 14 13 11 10 10 10 12 14 14 14 12 9 9 13 20 27 28 22 15 9 10 13 14 13 10 7 5 3 4 6 8 11 14
3 2 1 1 2 4 6 8 11 13 13 13 11 8 7 7 8 9 9 8 8 8 8 7 7 8 9 11 13 16 18 20 21 20 18 15 14 12 11 10 9 10 11 14 14 14 12 10 9 13 18 25 26 21 15 11 15 18 20 16 11 7 5 4 4 5 6 8 10
3 2 1 1 2 3 5 8 11 13 13 13 11 9 7 7 8 8 8 9 9 9 8 7 7 7 8 10 13 15 17 20 21 21 19 16 14 12 11 10 10 10 12 13 14 14 12 9 9 12 17 22 22 20 16 16 20 23 22 16 10 7 6 6 6 6 7 8 8
3 2 1 0 1 2 4 7 10 12 13 13 12 9 8 7 7 8 9 9 9 9 8 7 7 7 7 9 12 16 18 20 20 20 19 17 15 13 11 10 10 10 11 13 14 14 12 9 8 12 16 19 19 19 20 21 24 23 20 14 10 8 7 8 8 8 8 9 8
3 2 1 0 0 2 4 6 10 12 13 13 12 10 8 7 7 8 9 9 9 9 8 7 6 6 7 8 12 16 19 21 20 18 17 16 16 14 12 10 10 10 11 12 14 14 13 10 10 12 14 15 17 20 23 25 24 21 18 13 10 8 8 9 9 9 9 10 9
4 2 1 0 1 2 3 6 9 11 13 13 12 10 8 7 7 8 9 9 9 9 8 7 6 6 7 8 10 14 18 22 21 19 16 15 15 14 13 12 11 10 10 12 14 14 13 10 12 13 14 12 14 20 25 27 22 19 16 14 11 9 8 9 9 9 9 9 10
4 3 1 1 0 1 3 5 8 11 13 13 12 10 8 7 7 8 9 10 9 9 8 7 7 6 6 7 10 14 17 20 20 19 18 15 14 14 14 12 11 10 10 12 13 14 13 11 12 14 13 9 14 21 27 27 21 18 16 16 14 12 10 9 8 8 7 8 8
4 3 2 1 0 1 2 4 7 10 12 13 12 10 8 7 7 8 9 9 8 8 8 8 7 6 6 8 11 14 16 18 19 19 17 16 15 15 14 12 11 10 10 11 13 14 14 12 13 14 12 8 13 21 27 27 21 17 15 16 15 13 11 9 8 7 7 6 7
5 4 2 1 0 1 2 4 7 10 12 13 12 11 9 7 7 8 8 8 9 9 9 8 6 5 6 9 11 13 16 19 19 18 16 15 16 16 15 13 12 10 10 11 12 14 14 13 14 14 12 7 12 20 27 28 22 17 15 16 16 14 12 9 8 7 7 7 7
5 4 3 2 1 0 1 3 6 9 11 13 12 11 10 8 7 8 8 9 10 10 9 6 5 6 8 8 9 12 16 19 19 18 16 15 15 16 15 14 12 11 10 10 12 13 14 13 14 13 11 7 11 18 25 28 24 19 15 15 16 15 13 10 8 7 8 8 8
6 5 4 2 1 0 1 3 6 8 11 12 13 12 10 8 8 8 8 9 9 8 7 7 7 7 7 7 9 12 14 16 19 19 18 16 15 15 15 14 13 11 10 10 11 13 14 14 15 13 10 6 10 16 23 28 25 20 16 13 15 15 14 11 9 8 8 9 10
6 5 4 3 1 1 1 2 5 7 10 12 13 12 11 9 8 7 8 8 8 8 8 8 7 6 6 6 9 12 14 16 19 20 19 16 14 14 15 15 13 12 11 10 11 13 14 14 15 13 10 7 10 15 21 27 26 22 17 13 14 15 16 13 10 8 8 9 10
6 6 5 4 2 1 1 2 4 7 10 12 13 12 11 9 7 7 7 8 9 9 9 8 7 6 6 6 8 11 14 17 19 19 18 16 14 14 14 15 14 12 11 10 11 13 14 14 16 13 10 8 10 13 18 24 26 24 19 13 13 15 17 16 12 9 8 8 10
6 5 5 4 2 1 1 1 4 6 9 11 13 12 11 9 7 7 8 9 10 10 9 8 7 6 6 6 8 10 13 16 18 19 18 16 15 14 14 15 14 13 11 10 11 13 14 14 16 13 10 9 10 12 14 20 25 25 22 15 12 14 17 17 13 11 9 9 9
5 5 5 4 3 2 1 1 3 6 8 11 12 12 12 10 8 7 7 8 9 9 9 8 7 6 5 6 8 10 13 15 18 19 19 16 15 14 14 14 14 13 12 11 11 12 14 15 15 13 11 11 11 10 12 16 23 26 24 18 13 13 15 17 14 12 10 9 8
5 5 5 5 4 2 1 1 2 5 8 10 12 12 12 10 8 7 7 7 8 9 9 8 7 6 6 6 8 11 14 16 17 18 18 17 15 14 14 14 14 14 13 11 10 11 13 15 15 14 13 13 12 10 10 13 20 25 26 21 14 12 12 14 14 13 12 10 8
4 4 5 5 4 3 2 1 2 4 7 10 12 12 12 10 8 7 7 8 8 9 9 7 7 7 7 6 7 10 13 16 16 17 18 18 16 15 14 13 14 14 13 12 10 11 12 15 15 14 14 13 12 10 10 11 17 24 27 26 18 12 9 11 13 13 12 11 9
4 4 5 5 5 4 2 1 2 4 7 9 11 12 12 10 8 7 7 8 9 9 8 8 8 7 7 6 6 8 11 15 17 17 17 18 17 16 13 12 14 14 14 12 11 11 12 14 15 15 15 14 13 11 9 9 14 21 27 29 22 14 9 8 11 12 12 11 10
4 4 4 5 5 4 3 2 2 4 6 9 11 12 12 11 9 7 7 8 9 8 8 7 7 7 6 6 6 7 10 14 17 18 18 18 17 16 14 13 13 14 14 13 11 10 11 13 14 15 16 15 13 11 10 9 12 18 25 30 25 18 11 7 9 10 10 10 9
3 4 4 5 6 5 4 3 3 4 6 8 10 12 12 11 9 7 7 8 9 9 8 8 7 6 6 6 6 7 9 12 16 18 19 18 16 16 15 14 13 13 14 13 12 11 10 11 14 15 16 16 14 12 10 9 11 15 21 28 28 23 15 8 8 9 9 8 8
3 3 4 5 6 6 5 3 3 4 6 8 10 11 11 10 8 7 7 8 8 9 9 8 7 6 6 7 7 7 8 11 15 18 18 17 16 16 15 14 14 14 14 14 12 11 10 10 13 14 16 16 15 13 11 10 10 13 18 25 29 27 20 12 9 8 8 7 6
Height
5679 5674 5670 5665 5660 5656 5651 5646 5642 5637 5632 5627 5621 5616 5611 5605 5600 5594 5589 5583 5578 5572 5566 5559 5553 5546 5539 5532 5526 5519 5513 5506 5500 5494 5488 5482 5476 5470 5464 5459 5453 5447 5442 5436 5430 5423 5418 5411 5405 5399 5393 5388 5382 5377 5371 5366 5361 5356 5351 5347 5343 5339 5335 5331 5328 5324 5321 5317 5314
5676 5672 5667 5663 5658 5653 5648 5643 5639 5634 5629 5624 5619 5613 5608 5603 5597 5592 5586 5581 5575 5569 5563 5557 5550 5543 5536 5529 5523 5517 5510 5504 5498 5492 5486 5480 5474 5468 5463 5457 5451 5445 5439 5434 5428 5422 5416 5410 5403 5398 5392 5386 5380 5375 5370 5364 5359 5354 5350 5345 5341 5338 5334 5330 5327 5323 5320 5316 5313
5674 5669 5665 5660 5655 5651 5646 5641 5636 5632 5627 5622 5616 5611 5606 5600 5595 5589 5584 5578 5573 5567 5560 5554 5547 5541 5534 5527 5521 5514 5508 5502 5496 5490 5484 5478 5472 5466 5461 5455 5449 5443 5438 5432 5426 5420 5414 5408 5402 5396 5390 5384 5379 5373 5368 5363 5358 5353 5348 5344 5340 5336 5333 5329 5326 5322 5319 5315 5312
5672 5667 5663 5658 5653 5648 5643 5639 5634 5629 5624 5619 5614 5608 5603 5598 5592 5587 5581 5576 5570 5564 5558 5552 5545 5538 5532 5525 5519 5512 5506 5500 5494 5488 5482 5476 5471 5465 5459 5453 5448 5442 5436 5431 5425 5419 5413 5407 5401 5395 5389 5383 5378 5372 5367 5362 5357 5352 5348 5343 5339 5335 5332 5328 5325 5321 5318 5314 5311
5669 5665 5660 5655 5651 5646 5641 5636 5632 5627 5622 5616 5611 5606 5601 5595 5590 5584 5578 5573 5567 5562 5555 5549 5543 5536 5529 5523 5517 5510 5504 5498 5492 5486 5480 5475 5469 5463 5457 5452 5446 5440 5435 5429 5423 5418 5412 5406 5400 5394 5388 5383 5377 5371 5366 5361 5356 5351 5347 5342 5338 5334 5331 5327 5323 5320 5316 5313 5310
5667 5662 5657 5653 5648 5643 5638 5634 5629 5624 5619 5614 5609 5603 5598 5593 5587 5582 5576 5571 5565 5559 5553 5547 5540 5534 5528 5521 5514 5508 5502 5496 5490 5484 5479 5473 5467 5462 5456 5450 5445 5439 5433 5428 5423 5417 5411 5405 5399 5393 5388 5382 5376 5371 5365 5360 5355 5350 5346 5342 5338 5333 5329 5326 5322 5318 5315 5312 5308
5665 5660 5655 5650 5645 5641 5636 5631 5627 5622 5617 5612 5607 5601 5596 5590 5585 5579 5574 5568 5563 5557 5551 5545 5538 5532 5526 5519 5513 5507 5500 5494 5488 5483 5477 5472 5466 5460 5455 5449 5443 5438 5433 5427 5422 5416 5410 5404 5399 5393 5387 5382 5376 5370 5365 5360 5355 5350 5346 5342 5337 5333 5329 5325 5321 5318 5314 5311 5307
5663 5658 5653 5648 5643 5639 5634 5629 5624 5619 5614 5609 5604 5599 5593 5588 5583 5577 5571 5566 5560 5555 5549 5543 5537 5530 5524 5518 5511 5505 5499 5493 5487 5481 5475 5470 5464 5459 5453 5448 5442 5437 5432 5426 5421 5415 5410 5404 5398 5393 5387 5382 5376 5371 5365 5360 5355 5350 5346 5342 5337 5333 5329 5325 5321 5317 5314 5311 5307
5660 5656 5651 5646 5641 5637 5632 5627 5622 5617 5613 5607 5602 5597 5591 5586 5580 5575 5569 5564 5558 5553 5547 5541 5534 5528 5522 5516 5510 5503 5498 5492 5486 5480 5474 5468 5463 5458 5452 5447 5442 5436 5431 5425 5420 5415 5409 5403 5397 5392 5386 5381 5376 5370 5365 5360 5355 5350 5346 5342 5338 5333 5329 5325 5322 5318 5315 5312 5308
5658 5653 5649 5644 5639 5634 5629 5624 5620 5615 5610 5605 5600 5594 5589 5584 5578 5573 5568 5562 5556 5551 5545 5539 5533 5527 5521 5514 5508 5502 5496 5490 5484 5479 5473 5468 5462 5457 5451 5446 5441 5435 5430 5425 5419 5414 5408 5403 5397 5391 5385 5380 5375 5370 5365 5360 5355 5350 5346 5342 5338 5333 5329 5326 5323 5319 5316 5312 5308
5656 5652 5647 5642 5637 5632 5627 5622 5617 5613 5608 5603 5598 5592 5587 5582 5576 5571 5565 5560 5554 5549 5543 5537 5531 5525 5519 5513 5507 5501 5495 5489 5483 5478 5472 5466 5461 5455 5450 5445 5440 5434 5429 5424 5418 5413 5408 5402 5396 5390 5384 5379 5374 5369 5365 5360 5355 5350 5346 5342 5337 5333 5330 5327 5323 5319 5316 5312 5308
5654 5649 5644 5640 5635 5630 5625 5620 5615 5610 5605 5600 5595 5590 5585 5580 5574 5569 5563 5558 5553 5547 5541 5536 5530 5524 5518 5512 5505 5499 5493 5488 5482 5476 5471 5465 5460 5455 5449 5444 5439 5434 5428 5423 5418 5412 5407 5401 5396 5390 5384 5379 5373 5369 5364 5360 5355 5350 5346 5342 5338 5333 5330 5327 5323 5319 5315 5311 5307
5652 5647 5642 5637 5633 5628 5623 5618 5613 5608 5603 5598 5593 5588 5583 5578 5573 5567 5562 5556 5551 5545 5539 5534 5528 5523 5517 5510 5504 5498 5492 5486 5481 5475 5470 5465 5459 5454 5449 5443 5438 5433 5428 5422 5417 5412 5406 5401 5395 5390 5384 5379 5373 5369 5364 5360 5355 5351 5346 5342 5338 5334 5330 5327 5323 5319 5315 5311 5307
5650 5645 5640 5635 5631 5626 5621 5616 5611 5606 5601 5596 5591 5586 5581 5576 5571 5565 5560 5555 5549 5544 5538 5532 5526 5521 5515 5509 5503 5497 5491 5486 5480 5475 5469 5464 5458 5453 5448 5443 5438 5432 5427 5421 5416 5411 5406 5401 5395 5389 5384 5379 5374 5369 5364 5360 5355 5351 5347 5342 5338 5334 5330 5327 5323 5319 5315 5310 5307
5648 5643 5638 5633 5629 5624 5619 5614 5609 5604 5599 5594 5589 5584 5579 5574 5569 5564 5558 5553 5548 5542 5537 5531 5525 5519 5513 5507 5502 5496 5490 5485 5479 5474 5468 5463 5458 5452 5447 5442 5437 5432 5426 5421 5415 5410 5405 5400 5395 5390 5384 5379 5374 5369 5365 5360 5355 5351 5346 5342 5338 5334 5330 5327 5324 5320 5315 5311 5307
5646 5641 5637 5632 5627 5622 5617 5613 5608 5603 5598 5592 5587 5582 5577 5572 5567 5562 5557 5552 5546 5540 5535 5529 5523 5518 5512 5506 5500 5495 5489 5483 5478 5473 5468 5462 5457 5452 5447 5442 5437 5431 5426 5421 5415 5410 5405 5400 5395 5390 5384 5379 5374 5369 5365 5360 5355 5351 5346 5342 5338 5334 5331 5328 5324 5320 5316 5312 5308
5644 5639 5635 5630 5625 5620 5615 5611 5606 5601 5596 5590 5585 5580 5575 5570 5565 5560 5555 5550 5545 5539 5533 5528 5522 5516 5510 5505 5499 5493 5488 5483 5477 5472 5467 5461 5456 5451 5446 5441 5436 5431 5425 5420 5415 5410 5405 5400 5395 5389 5384 5379 5374 5369 5365 5360 5355 5351 5347 5343 5339 5335 5332 5328 5325 5321 5317 5313 5308
5642 5638 5633 5628 5623 5618 5614 5609 5604 5599 5594 5589 5584 5579 5574 5569 5564 5559 5553 5548 5543 5538 5532 5526 5520 5515 5509 5504 5498 5493 5487 5482 5476 5471 5465 5460 5455 5449 5444 5439 5434 5429 5425 5420 5415 5410 5406 5401 5395 5389 5384 5378 5373 5368 5364 5360 5356 5352 5348 5345 5341 5337 5333 5329 5326 5322 5318 5313 5309
5640 5636 5631 5626 5622 5617 5612 5607 5602 5597 5592 5587 5582 5577 5572 5567 5562 5557 5552 5547 5541 5536 5531 5525 5519 5513 5508 5502 5497 5491 5486 5480 5475 5469 5463 5458 5453 5448 5443 5438 5433 5429 5424 5420 5415 5410 5406 5401 5395 5389 5383 5378 5373 5368 5364 5361 5357 5354 5350 5346 5342 5338 5334 5330 5326 5323 5318 5314 5310
5638 5634 5629 5624 5620 5615 5610 5605 5600 5595 5590 5585 5580 5575 5571 5566 5561 5556 5550 5545 5540 5535 5529 5523 5518 5512 5506 5501 5495 5490 5484 5479 5473 5468 5463 5457 5452 5447 5443 5438 5433 5428 5424 5419 5414 5410 5405 5400 5395 5389 5383 5378 5373 5369 5365 5363 5359 5356 5352 5348 5343 5338 5334 5330 5327 5323 5319 5315 5311
5637 5632 5628 5623 5618 5613 5608 5603 5598 5594 5589 5584 5579 5574 5569 5564 5559 5554 5549 5544 5539 5533 5528 5522 5517 5511 5505 5500 5494 5489 5483 5478 5472 5467 5462 5457 5451 5447 5442 5438 5433 5428 5423 5418 5414 5409 5405 5400 5395 5389 5383 5378 5374 5371 5368 5365 5362 5358 5353 5348 5343 5339 5334 5331 5328 5324 5321 5317 5313
5635 5630 5626 5621 5616 5611 5607 5602 5597 5592 5587 5583 5578 5573 5568 5563 5558 5553 5548 5543 5537 5532 5527 5521 5515 5510 5504 5499 5494 5488 5482 5476 5471 5466 5461 5456 5451 5446 5441 5437 5432 5428 5423 5418 5414 5409 5405 5400 5395 5389 5384 5379 5376 5373 5371 5368 5363 5358 5352 5347 5343 5338 5335 5331 5328 5326 5323 5318 5315
5633 5628 5624 5619 5614 5610 5605 5600 5596 5591 5586 5581 5576 5571 5566 5561 5557 5552 5546 5541 5536 5531 5525 5520 5514 5509 5503 5498 5493 5487 5481 5475 5470 5464 5460 5455 5450 5446 5441 5436 5431 5427 5423 5418 5413 5409 5405 5400 5395 5390 5385 5380 5378 5375 5372 5367 5361 5355 5350 5345 5341 5338 5335 5332 5330 5327 5324 5320 5316
5631 5627 5622 5618 5613 5608 5604 5599 5594 5589 5584 5580 5575 5570 5565 5560 5555 5550 5545 5540 5535 5529 5524 5518 5513 5508 5503 5497 5492 5486 5481 5475 5469 5464 5459 5454 5450 5445 5440 5436 5431 5426 5422 5417 5412 5408 5403 5399 5394 5389 5384 5380 5378 5374 5369 5363 5358 5353 5348 5344 5341 5338 5335 5333 5331 5328 5325 5321 5317
5629 5625 5621 5616 5612 5607 5602 5598 5593 5588 5583 5578 5573 5569 5564 5559 5554 5549 5544 5539 5534 5528 5523 5518 5512 5507 5501 5496 5490 5485 5479 5474 5469 5464 5459 5454 5449 5444 5440 5435 5430 5426 5421 5416 5412 5407 5402 5398 5393 5387 5382 5378 5376 5372 5367 5362 5357 5352 5348 5345 5342 5339 5337 5334 5332 5329 5326 5322 5318
5628 5623 5619 5614 5610 5605 5601 5596 5592 5587 5582 5577 5572 5568 5563 5558 5553 5548 5543 5538 5533 5528 5522 5517 5512 5506 5501 5495 5490 5484 5479 5473 5468 5464 5459 5454 5450 5445 5439 5435 5430 5425 5421 5416 5411 5407 5402 5397 5391 5385 5380 5377 5374 5370 5366 5362 5356 5352 5349 5347 5344 5341 5338 5336 5333 5330 5326 5323 5319
5625 5622 5617 5613 5608 5604 5599 5595 5590 5585 5581 5576 5571 5566 5561 5557 5552 5547 5542 5537 5532 5527 5522 5516 5511 5506 5500 5495 5489 5484 5478 5473 5468 5463 5458 5454 5450 5445 5440 5435 5430 5425 5420 5416 5411 5407 5402 5397 5391 5385 5380 5377 5374 5370 5366 5362 5357 5354 5351 5348 5345 5342 5339 5337 5333 5330 5327 5323 5320
5623 5620 5616 5611 5607 5603 5598 5593 5589 5584 5579 5575 5570 5565 5560 5556 5551 5546 5541 5536 5531 5526 5521 5515 5510 5505 5500 5494 5489 5483 5478 5473 5468 5463 5458 5453 5449 5444 5439 5435 5430 5425 5420 5416 5411 5406 5402 5396 5391 5386 5381 5378 5375 5371 5367 5362 5358 5355 5353 5349 5346 5343 5340 5338 5334 5331 5328 5325 5322
5622 5618 5614 5610 5605 5601 5597 5592 5588 5583 5578 5573 5569 5564 5559 5554 5550 5545 5540 5535 5531 5526 5520 5515 5510 5504 5499 5494 5488 5483 5478 5473 5468 5463 5458 5453 5448 5444 5439 5434 5429 5425 5420 5416 5411 5406 5401 5396 5391 5386 5383 5380 5376 5372 5368 5363 5359 5356 5353 5350 5347 5344 5341 5338 5335 5332 5329 5326 5323
5620 5616 5612 5608 5604 5600 5595 5591 5586 5582 5577 5572 5568 5563 5558 5553 5549 5544 5539 5534 5530 5525 5520 5515 5510 5504 5499 5494 5489 5483 5478 5473 5467 5462 5457 5453 5448 5443 5439 5434 5429 5425 5420 5416 5411 5406 5401 5396 5391 5387 5383 5381 5378 5373 5368 5363 5360 5357 5354 5351 5348 5345 5342 5339 5336 5333 5330 5328 5324
5618 5614 5610 5606 5602 5598 5594 5589 5585 5580 5576 5571 5567 5562 5557 5553 5548 5543 5539 5534 5529 5524 5519 5514 5509 5504 5499 5493 5488 5483 5478 5472 5467 5462 5457 5452 5448 5443 5439 5434 5429 5425 5420 5416 5411 5406 5401 5396 5391 5388 5384 5382 5379 5373 5368 5364 5361 5358 5355 5352 5349 5346 5343 5339 5337 5334 5332 5329 5326
5616 5612 5608 5605 5601 5597 5593 5588 5583 5579 5575 5570 5566 5561 5556 5552 5547 5543 5538 5533 5528 5523 5518 5513 5508 5503 5498 5493 5488 5482 5477 5472 5467 5462 5457 5452 5447 5443 5438 5434 5430 5425 5421 5416 5411 5406 5401 5397 5392 5388 5385 5383 5378 5373 5368 5365 5361 5358 5355 5353 5350 5346 5343 5340 5337 5335 5333 5330 5327
5614 5610 5607 5603 5599 5595 5591 5587 5582 5578 5573 5569 5564 5560 5555 5551 5546 5541 5537 5532 5528 5523 5518 5513 5508 5503 5498 5493 5488 5483 5477 5472 5467 5461 5456 5451 5447 5443 5438 5434 5430 5425 5421 5416 5411 5406 5401 5397 5393 5389 5386 5383 5378 5373 5369 5365 5362 5359 5356 5353 5350 5347 5344 5341 5338 5336 5333 5331 5328
5612 5608 5605 5601 5598 5593 5590 5585 5581 5577 5572 5568 5563 5559 5554 5550 5545 5540 5536 5531 5526 5522 5517 5512 5507 5503 5498 5493 5488 5483 5477 5471 5466 5461 5456 5451 5447 5442 5438 5434 5430 5425 5421 5416 5411 5407 5402 5397 5393 5390 5387 5383 5378 5373 5369 5366 5363 5360 5357 5354 5351 5348 5344 5341 5339 5337 5334 5332 5329
5610 5607 5603 5599 5596 5592 5588 5584 5580 5575 5571 5567 5563 5558 5553 5549 5544 5540 5535 5530 5525 5521 5516 5511 5506 5502 5497 5492 5487 5482 5477 5471 5466 5461 5456 5451 5447 5442 5438 5434 5430 5425 5421 5416 5412 5407 5402 5398 5394 5391 5388 5383 5378 5374 5370 5367 5364 5361 5358 5354 5351 5348 5345 5342 5340 5338 5335 5332 5329
5608 5605 5601 5598 5594 5590 5587 5583 5578 5574 5570 5566 5562 5557 5552 5548 5543 5538 5534 5529 5524 5520 5515 5510 5506 5501 5496 5491 5486 5482 5477 5471 5466 5461 5456 5451 5447 5442 5438 5434 5430 5425 5421 5417 5412 5408 5403 5399 5394 5391 5388 5383 5378 5374 5371 5368 5365 5362 5358 5355 5352 5349 5346 5343 5341 5338 5335 5333 5329
5606 5603 5599 5596 5592 5588 5585 5581 5577 5573 5569 5565 5560 5556 5551 5547 5542 5538 5533 5528 5523 5519 5514 5509 5505 5500 5495 5491 5486 5481 5476 5471 5466 5461 5456 5451 5447 5443 5438 5434 5430 5426 5421 5417 5413 5408 5404 5400 5396 5392 5388 5384 5379 5376 5373 5369 5366 5362 5359 5356 5353 5350 5347 5344 5341 5338 5336 5333 5330
5604 5601 5597 5594 5590 5587 5583 5580 5576 5572 5568 5563 5559 5555 5550 5546 5541 5537 5532 5527 5523 5518 5513 5509 5504 5499 5495 5490 5485 5481 5476 5471 5466 5461 5456 5452 5447 5443 5438 5434 5430 5426 5422 5418 5413 5409 5405 5401 5397 5393 5390 5385 5381 5377 5374 5371 5367 5363 5359 5356 5353 5350 5348 5345 5342 5339 5336 5333 5330
5603 5599 5595 5592 5588 5585 5582 5578 5574 5570 5566 5562 5558 5553 5549 5544 5540 5535 5531 5527 5522 5518 5513 5508 5504 5499 5494 5489 5485 5480 5476 5471 5466 5461 5456 5451 5447 5443 5438 5434 5430 5426 5422 5418 5413 5409 5405 5401 5398 5394 5391 5386 5382 5378 5375 5371 5368 5364 5360 5357 5354 5351 5348 5345 5342 5339 5336 5333 5331
5600 5597 5593 5590 5587 5583 5580 5577 5573 5569 5565 5561 5557 5552 5548 5543 5539 5535 5530 5526 5521 5517 5512 5508 5503 5498 5493 5489 5485 5480 5476 5471 5465 5460 5456 5451 5447 5442 5438 5434 5430 5426 5422 5418 5413 5409 5405 5402 5398 5394 5391 5387 5383 5379 5375 5372 5368 5364 5361 5358 5354 5352 5348 5345 5342 5339 5336 5333 5331
5598 5595 5592 5588 5585 5581 5578 5575 5571 5568 5563 5559 5555 5551 5547 5542 5538 5534 5529 5525 5520 5516 5512 5507 5502 5498 5493 5489 5484 5480 5475 5470 5465 5460 5455 5451 5446 5442 5438 5434 5429 5425 5421 5417 5413 5409 5406 5402 5398 5395 5392 5388 5383 5379 5376 5372 5369 5365 5362 5358 5355 5352 5349 5346 5343 5340 5337 5334 5331